Wind_Speed
4 4 2 1 4 5 5 6 6 7 7 7 7 8 9 10 11 12 14 16 18 19 20 22 24 26 27 29 32 34 36 38 39 40 41 42 43 44 44 43 43 43 43
6 5 4 3 3 4 5 6 7 9 10 10 10 10 11 12 13 14 16 18 20 22 25 27 28 30 33 35 37 39 40 41 42 42 43 44 46 46 46 46 45 45 45
7 5 4 4 4 5 6 8 10 11 12 13 13 12 13 15 17 19 21 23 25 27 29 31 33 35 37 40 41 43 45 46 46 48 49 49 48 48 48 47 47 47 47
10 8 7 6 7 8 10 12 13 13 13 12 12 13 15 17 19 22 24 27 29 32 34 36 38 40 42 43 45 46 47 48 49 50 51 51 51 51 52 51 51 51 51
12 11 10 9 9 10 11 12 13 12 12 13 15 17 19 22 25 27 30 33 35 37 39 41 43 45 46 47 47 48 49 50 51 51 52 53 54 55 55 56 56 56 57
14 13 12 11 11 12 13 13 13 13 15 17 19 21 23 24 27 30 33 36 38 41 43 44 45 46 47 47 48 49 50 52 53 55 56 57 58 59 60 61 62 62 61
16 15 14 14 14 14 14 14 14 16 18 18 16 19 23 26 30 32 35 38 40 42 44 45 46 48 49 50 50 52 53 55 56 59 61 62 63 64 63 63 62 60 59
19 17 16 15 16 15 15 16 17 19 16 15 19 23 25 29 33 37 38 39 40 42 44 46 47 50 51 52 54 56 58 60 62 64 64 62 62 61 61 61 59 58 58
19 17 17 17 17 17 18 20 19 16 15 17 22 25 30 34 37 43 44 43 44 45 47 49 51 52 53 55 57 60 64 65 63 60 60 60 60 60 60 59 59 59 59
19 19 18 18 18 20 22 21 18 17 18 20 24 27 32 36 41 45 48 47 45 47 48 51 52 54 55 58 61 65 65 65 65 65 65 64 63 61 60 59 60 59 60
21 20 20 20 22 24 22 21 20 20 22 24 27 30 34 38 43 46 46 45 45 47 49 52 54 55 58 62 65 66 67 67 66 65 64 62 61 61 61 61 60 60 60
21 21 22 25 24 23 23 23 23 25 25 27 30 34 38 41 44 47 49 50 45 43 46 51 54 58 62 65 67 68 69 69 70 69 66 65 64 64 63 63 63 63 63
23 24 27 26 25 24 25 26 27 28 29 31 35 38 42 45 49 51 53 55 53 47 48 52 57 61 65 67 70 72 72 73 71 69 66 65 64 64 64 65 66 65 65
28 29 28 27 27 27 28 29 30 32 33 35 39 41 44 47 51 54 57 59 61 57 53 56 58 63 65 69 71 72 74 74 72 69 67 64 63 64 65 66 67 68 70
32 31 30 29 29 30 31 32 34 36 38 40 43 45 47 51 54 57 60 63 67 67 60 58 60 62 65 68 70 70 70 69 68 68 64 62 64 66 68 69 70 72 75
34 32 32 32 33 34 34 35 36 39 42 45 47 47 50 55 59 62 63 67 69 73 74 67 64 68 68 70 71 70 69 69 67 64 64 64 67 70 72 76 79 82 85
35 35 35 36 36 37 38 39 40 42 45 48 50 52 55 60 62 64 66 68 71 75 76 72 72 71 72 73 71 70 73 70 66 65 66 68 71 75 79 83 85 86 85
38 38 39 39 39 39 41 42 44 47 49 52 55 57 59 62 64 66 67 70 72 72 74 76 73 74 72 72 71 74 73 72 70 70 72 77 82 86 88 88 87 87 85
41 41 42 41 42 43 45 46 49 51 55 57 59 59 62 65 68 69 70 68 73 73 74 76 75 73 71 73 74 75 74 73 75 78 82 85 87 89 91 88 89 90 85
44 44 44 45 46 48 48 50 52 56 58 59 60 63 65 67 70 71 70 69 73 73 72 73 72 70 72 75 76 74 74 78 82 85 87 90 92 93 96 97 93 87 64
46 45 46 49 49 50 52 54 57 58 60 61 64 65 67 69 71 73 71 71 73 72 72 70 72 73 75 75 77 79 83 84 88 91 91 93 95 95 92 87 70 44 20
48 48 50 52 52 54 55 59 60 61 62 65 65 65 68 70 73 74 73 73 73 72 71 74 75 75 75 78 83 87 89 92 92 92 94 93 91 84 68 46 25 11 8
50 52 52 53 55 58 60 60 62 63 65 66 66 67 69 71 74 71 71 71 71 71 73 75 74 76 80 84 87 89 91 92 95 94 91 85 77 54 24 9 10 10 7
52 52 54 57 60 61 62 63 64 66 67 66 66 68 69 72 69 68 68 69 67 70 72 73 76 79 82 86 90 92 94 96 91 88 83 69 46 21 5 6 1 3 7
53 56 59 61 62 64 65 64 66 67 67 66 67 68 70 67 68 69 69 67 68 70 70 75 79 82 86 88 93 97 97 94 82 73 64 48 19 10 5 6 5 5 6
57 59 62 64 65 65 65 65 68 68 66 67 69 69 66 67 67 68 67 68 69 70 74 76 81 85 86 90 95 95 91 83 73 58 46 20 11 10 8 8 8 8 8
Wind_Direction
205 212 227 359 9 6 7 6 1 357 350 331 313 304 301 301 301 303 307 313 315 312 309 307 307 306 305 304 304 304 304 304 305 304 304 304 303 303 303 301 300 298 297
238 247 272 297 316 330 335 334 333 332 334 330 315 306 304 305 307 307 305 304 305 306 307 307 306 305 305 306 305 305 304 303 302 301 300 300 301 302 302 301 300 298 296
248 259 272 291 313 324 322 321 321 323 325 326 326 317 309 307 309 311 312 311 310 308 305 304 303 302 301 301 301 301 301 302 303 302 302 302 302 301 299 298 297 296 295
255 267 279 291 306 314 316 318 320 324 325 328 327 326 323 319 317 315 311 308 306 304 302 301 300 298 298 298 300 301 301 301 300 300 301 301 300 299 298 297 296 295 295
260 267 276 288 297 298 301 305 309 315 321 325 325 324 321 317 315 313 310 308 306 304 303 302 302 302 302 303 302 302 302 302 301 301 300 300 300 300 299 298 297 296 295
260 267 274 282 288 292 297 301 311 319 321 322 321 323 325 325 323 320 316 313 311 310 307 305 303 302 302 302 304 304 304 305 305 304 303 301 300 299 299 298 297 296 296
260 266 273 278 283 289 295 301 306 309 312 317 326 330 327 327 326 324 321 314 309 305 304 304 303 303 304 305 305 306 305 305 303 303 302 301 301 300 299 298 297 297 295
258 262 267 274 280 284 290 296 300 302 307 320 327 327 329 329 327 327 325 320 314 309 307 306 305 307 307 306 305 304 303 302 302 302 302 300 299 299 299 299 299 297 296
254 260 265 272 277 281 287 291 293 297 305 313 325 330 330 329 331 333 331 326 319 313 310 308 307 307 307 307 307 307 306 305 305 304 303 303 302 301 300 299 298 297 296
253 259 263 265 270 278 284 288 293 297 298 307 317 324 328 331 334 336 334 329 320 313 309 307 307 307 307 306 307 308 309 308 307 307 307 306 304 302 300 298 297 296 296
251 253 256 264 272 279 286 288 289 289 293 300 310 315 321 324 329 332 333 328 320 312 309 306 303 303 302 303 304 307 309 308 307 307 307 305 303 301 298 297 297 297 296
246 253 261 270 277 282 283 283 284 288 291 296 303 308 313 317 321 326 328 328 321 311 305 305 305 305 305 306 308 308 309 310 311 311 309 307 305 303 302 301 300 298 297
251 259 267 273 276 278 281 280 282 287 290 297 303 306 310 314 318 321 326 328 324 316 310 307 305 304 306 307 307 309 311 312 311 310 309 307 305 304 303 302 300 298 296
260 266 268 270 272 276 278 279 283 288 292 297 302 305 308 312 316 319 321 322 321 317 312 307 303 304 305 306 308 309 310 310 309 309 308 306 304 302 301 299 298 296 295
265 266 269 269 272 276 277 280 286 292 295 299 302 304 305 310 314 316 316 317 318 317 314 308 307 305 306 306 307 308 308 310 310 309 306 303 302 300 300 301 300 298 296
266 269 269 270 273 276 279 284 289 293 295 298 298 300 305 309 311 313 315 317 317 317 315 313 309 309 309 310 310 310 310 310 311 307 303 301 300 302 302 302 301 300 300
271 271 270 272 275 278 281 285 287 289 293 297 300 302 306 308 312 315 316 315 315 315 314 313 311 311 311 310 310 311 313 314 313 307 302 300 301 302 303 302 301 301 301
270 269 269 271 275 277 281 284 287 292 296 299 301 303 304 308 311 313 315 314 314 312 311 311 311 311 311 310 311 314 315 316 314 309 306 304 304 304 304 303 302 301 302
272 271 271 274 276 279 282 287 291 296 297 299 300 302 304 308 310 313 313 308 310 311 311 310 312 311 312 313 315 316 316 314 313 312 310 309 307 306 305 304 304 304 300
273 273 273 275 277 280 285 290 294 295 296 297 298 300 303 307 309 312 309 305 308 310 310 311 311 313 314 315 314 313 313 316 316 314 312 310 309 307 306 306 304 302 304
272 272 274 277 281 284 287 291 292 293 295 296 296 300 303 307 308 310 308 305 308 309 310 311 313 315 314 313 313 314 317 316 315 312 311 309 306 305 304 306 312 308 294
273 272 274 277 279 284 289 290 290 292 292 293 297 299 304 304 305 307 307 309 310 310 312 313 314 312 313 316 318 318 316 314 313 311 309 309 303 307 314 314 323 319 292
271 273 275 279 282 283 286 287 289 290 292 294 298 298 302 302 305 306 308 309 311 313 314 314 313 314 318 318 318 317 317 316 315 312 309 310 315 314 315 347 356 347 339
269 272 275 277 281 283 284 286 288 290 292 295 297 299 300 302 303 305 307 311 313 313 313 313 316 318 319 319 318 318 316 316 315 311 313 317 317 303 300 321 203 211 290
269 271 274 277 279 281 283 285 288 290 293 294 297 299 300 302 305 306 307 309 309 311 313 316 317 318 319 319 318 318 317 315 314 315 315 318 301 235 240 252 213 197 246
267 271 273 275 278 280 283 286 287 291 293 297 298 301 303 303 304 306 307 307 309 311 312 315 317 318 318 319 319 318 315 313 314 317 315 305 249 237 245 257 252 240 244
Height
5856 5857 5857 5858 5859 5859 5859 5860 5860 5860 5860 5859 5858 5857 5857 5856 5855 5855 5854 5854 5852 5851 5849 5847 5844 5842 5840 5838 5835 5833 5830 5827 5824 5821 5818 5815 5812 5809 5806 5802 5799 5796 5793
5856 5857 5857 5858 5858 5859 5859 5859 5858 5858 5858 5857 5857 5856 5855 5854 5854 5853 5852 5850 5849 5847 5845 5843 5840 5838 5834 5831 5828 5825 5822 5819 5815 5812 5809 5806 5803 5799 5796 5793 5789 5786 5783
5855 5856 5857 5857 5857 5858 5858 5857 5857 5857 5856 5856 5855 5855 5854 5853 5852 5850 5849 5847 5845 5843 5840 5837 5834 5831 5828 5825 5821 5818 5814 5810 5807 5803 5799 5796 5793 5789 5786 5782 5779 5775 5772
5854 5855 5855 5855 5856 5856 5856 5855 5855 5855 5854 5853 5853 5852 5851 5851 5849 5848 5845 5843 5840 5837 5834 5831 5827 5823 5820 5816 5813 5809 5805 5802 5798 5793 5789 5785 5781 5777 5773 5770 5767 5763 5760
5852 5853 5853 5854 5854 5854 5854 5854 5853 5852 5852 5852 5851 5850 5849 5847 5846 5843 5840 5838 5834 5831 5827 5824 5820 5816 5813 5810 5806 5802 5798 5794 5789 5784 5780 5775 5771 5766 5761 5757 5753 5749 5745
5849 5850 5851 5851 5852 5851 5851 5851 5851 5850 5849 5848 5847 5846 5845 5843 5842 5839 5836 5832 5828 5825 5821 5816 5812 5808 5804 5800 5796 5792 5787 5783 5778 5773 5769 5764 5759 5755 5750 5745 5740 5735 5731
5845 5846 5847 5848 5848 5848 5848 5848 5847 5847 5846 5845 5844 5843 5841 5839 5836 5833 5830 5826 5822 5818 5813 5809 5804 5800 5795 5791 5786 5781 5776 5771 5766 5760 5755 5750 5745 5740 5735 5731 5727 5722 5717
5842 5843 5844 5844 5844 5845 5845 5844 5844 5843 5841 5841 5840 5838 5836 5834 5830 5827 5823 5818 5813 5809 5804 5799 5795 5790 5786 5781 5776 5771 5766 5760 5754 5748 5742 5736 5730 5725 5720 5716 5712 5708 5704
5839 5840 5840 5840 5841 5841 5841 5840 5839 5838 5837 5836 5834 5832 5830 5827 5823 5818 5813 5808 5803 5798 5794 5789 5784 5780 5775 5770 5765 5759 5752 5746 5740 5734 5728 5722 5717 5712 5706 5701 5697 5693 5689
5834 5835 5836 5836 5836 5837 5836 5835 5835 5834 5832 5830 5828 5826 5823 5819 5815 5811 5804 5800 5795 5789 5784 5778 5773 5769 5763 5759 5753 5747 5740 5734 5728 5721 5715 5709 5703 5697 5692 5688 5684 5679 5675
5829 5830 5831 5831 5832 5831 5831 5830 5829 5828 5827 5825 5822 5819 5815 5811 5807 5804 5802 5796 5788 5781 5776 5770 5765 5761 5755 5749 5743 5736 5729 5722 5715 5708 5702 5696 5690 5685 5680 5674 5669 5664 5658
5824 5825 5825 5825 5825 5825 5824 5824 5823 5822 5820 5818 5815 5812 5808 5804 5800 5796 5793 5789 5783 5779 5772 5764 5757 5750 5744 5737 5730 5722 5714 5707 5700 5693 5686 5679 5674 5667 5661 5656 5651 5645 5641
5819 5819 5819 5819 5818 5818 5818 5817 5816 5815 5813 5810 5806 5803 5798 5794 5789 5784 5779 5775 5771 5769 5762 5754 5747 5739 5732 5724 5715 5707 5698 5691 5683 5676 5670 5664 5657 5650 5644 5639 5633 5628 5622
5812 5812 5812 5812 5812 5812 5811 5810 5809 5807 5804 5801 5798 5794 5789 5784 5779 5774 5768 5763 5760 5755 5750 5742 5735 5726 5719 5711 5703 5695 5686 5676 5668 5659 5652 5646 5640 5634 5628 5622 5616 5610 5604
5805 5804 5805 5805 5805 5804 5804 5802 5800 5798 5795 5792 5788 5783 5779 5775 5769 5763 5757 5751 5745 5739 5738 5731 5723 5715 5707 5697 5688 5680 5671 5663 5654 5647 5639 5632 5624 5617 5611 5604 5597 5589 5581
5797 5797 5797 5797 5797 5796 5795 5794 5792 5789 5785 5782 5777 5773 5767 5762 5756 5751 5745 5738 5730 5723 5717 5712 5705 5696 5688 5681 5672 5664 5655 5647 5638 5629 5621 5613 5606 5598 5590 5582 5573 5565 5556
5789 5789 5790 5790 5789 5788 5786 5785 5782 5780 5776 5771 5766 5761 5756 5750 5744 5738 5730 5723 5716 5708 5702 5697 5687 5679 5671 5663 5655 5646 5638 5629 5621 5613 5605 5597 5589 5582 5573 5563 5551 5540 5529
5781 5781 5781 5781 5780 5779 5777 5774 5772 5769 5765 5760 5755 5750 5745 5739 5732 5725 5718 5710 5703 5694 5685 5679 5672 5664 5655 5646 5637 5629 5621 5612 5603 5595 5586 5575 5566 5556 5547 5538 5528 5517 5506
5772 5772 5771 5771 5770 5768 5766 5763 5760 5756 5752 5748 5743 5738 5732 5726 5718 5711 5704 5696 5688 5680 5671 5663 5657 5648 5639 5629 5624 5615 5607 5599 5590 5579 5567 5555 5542 5530 5519 5510 5500 5489 5479
5763 5762 5761 5760 5759 5757 5754 5751 5748 5745 5741 5736 5729 5724 5719 5712 5705 5699 5691 5683 5675 5667 5658 5650 5642 5634 5624 5615 5606 5600 5597 5583 5574 5562 5548 5533 5519 5505 5492 5479 5470 5461 5454
5751 5750 5750 5748 5746 5745 5743 5740 5737 5733 5728 5722 5716 5712 5707 5700 5693 5685 5678 5670 5661 5653 5644 5635 5627 5619 5610 5602 5593 5584 5574 5567 5556 5538 5530 5516 5500 5485 5469 5455 5446 5439 5439
5739 5739 5737 5736 5735 5733 5730 5727 5724 5720 5714 5708 5703 5699 5693 5686 5679 5670 5661 5653 5645 5637 5629 5620 5612 5602 5593 5582 5573 5562 5552 5542 5537 5521 5505 5500 5473 5461 5450 5441 5436 5435 5437
5728 5727 5726 5724 5723 5721 5718 5714 5711 5706 5700 5695 5691 5685 5678 5671 5664 5655 5648 5639 5629 5619 5611 5604 5596 5584 5573 5561 5556 5548 5533 5521 5507 5490 5477 5470 5456 5446 5441 5437 5436 5436 5436
5716 5715 5714 5713 5711 5708 5705 5701 5697 5691 5686 5682 5676 5670 5664 5656 5648 5641 5634 5626 5617 5607 5601 5591 5579 5568 5555 5543 5531 5522 5511 5502 5490 5467 5452 5451 5441 5438 5437 5436 5435 5436 5437
5704 5703 5702 5700 5697 5694 5691 5686 5682 5677 5672 5667 5661 5655 5649 5640 5632 5625 5620 5613 5605 5596 5586 5576 5565 5552 5540 5527 5511 5500 5491 5475 5468 5455 5442 5438 5434 5435 5434 5435 5433 5433 5435
5690 5689 5687 5685 5682 5680 5676 5672 5667 5662 5658 5652 5645 5637 5631 5625 5617 5610 5604 5597 5591 5583 5574 5565 5554 5541 5527 5513 5498 5480 5466 5456 5447 5443 5431 5431 5430 5431 5431 5431 5431 5432 5432